period_start,C,m1,H,J0,J1,J2,J3,J4,J5,JA,JB,JC,JD,JJ,JK,JN,#
2015-01-07 00:02:21,0.25,0.28,0.00,20.42,25.25,28.15,4.92,26.38,1030.22,2038.99,3384.21,3252.12,3522.64,349.81,355.26,1.05,0000 0000 0000 0000 000000
2015-01-07 00:07:22,0.25,0.29,0.00,20.38,25.24,28.12,4.87,26.36,1030.13,2038.99,3380.82,3249.76,3520.17,350.33,355.80,1.08,0000 0000 0000 0000 000000
2015-01-07 00:12:23,0.25,0.29,0.00,20.40,25.23,28.17,4.88,26.33,1029.95,2038.99,3377.41,3247.38,3517.74,349.82,355.21,1.11,0000 0000 0000 0000 000000
2015-01-07 00:17:25,0.26,0.30,0.00,20.37,25.22,28.13,4.88,26.31,1030.02,2038.99,3374.04,3244.97,3515.17,349.83,355.26,1.14,0000 0000 0000 0000 000000
2015-01-07 00:22:26,0.24,0.31,0.00,20.44,25.22,28.16,4.94,26.41,1030.18,2038.99,3370.76,3242.63,3512.68,350.26,355.62,1.17,0000 0000 0000 0000 000000
2015-01-07 00:27:27,0.26,0.32,0.00,20.45,25.22,28.17,4.88,26.43,1030.22,2038.99,3367.46,3240.28,3510.14,349.90,355.24,1.20,0000 0000 0000 0000 000000
2015-01-07 00:32:28,0.25,0.32,0.00,20.43,25.21,28.13,4.88,26.37,1030.14,2038.99,3364.19,3238.00,3507.56,349.99,355.24,1.23,0000 0000 0000 0000 000000
2015-01-07 00:37:30,0.25,0.33,0.00,20.40,25.20,28.12,4.87,26.54,1030.11,2038.99,3360.89,3235.65,3505.11,349.85,355.31,1.26,0000 0000 0000 0000 000000
2015-01-07 00:42:31,0.26,0.34,0.00,20.37,25.20,28.14,4.91,26.47,1030.02,2038.99,3357.48,3233.24,3502.45,350.26,355.69,1.29,0000 0000 0000 0000 000000
2015-01-07 00:47:32,0.25,0.35,0.00,20.43,25.20,28.10,4.87,26.44,1029.91,2038.99,3354.28,3230.86,3499.85,350.03,355.23,1.31,0000 0000 0000 0000 000000
2015-01-07 00:52:33,0.24,0.35,0.00,20.40,25.20,28.10,4.96,26.39,1029.83,2038.99,3351.11,3228.47,3497.29,350.14,355.47,1.34,0000 0000 0000 0000 000000
2015-01-07 00:57:34,1.28,0.38,0.00,20.36,25.19,28.06,4.87,26.46,1029.81,2038.99,3338.00,3220.25,3488.64,349.89,355.24,1.37,0000 0000 0000 0000 000000
2015-01-07 01:02:35,0.38,0.40,0.00,20.36,25.17,28.12,4.86,26.36,1029.81,2038.99,3328.35,3214.06,3482.06,350.44,355.88,1.40,0000 0000 0000 0000 000000
2015-01-07 01:07:36,0.24,0.41,0.00,20.36,25.17,28.12,4.92,26.24,1029.80,2038.99,3324.90,3211.62,3479.48,350.31,355.78,1.43,0000 0000 0000 0000 000000
2015-01-07 01:12:37,0.26,0.42,0.00,20.34,25.17,28.11,4.89,26.43,1029.82,2038.99,3321.61,3209.33,3477.06,349.66,355.04,1.46,0000 0000 0000 0000 000000
2015-01-07 01:17:39,0.25,0.42,0.00,20.36,25.17,28.08,4.92,26.43,1029.83,2038.99,3318.38,3206.99,3474.53,350.40,355.42,1.49,0000 0000 0000 0000 000000
2015-01-07 01:22:40,0.25,0.43,0.00,20.34,25.17,28.05,4.90,26.33,1029.80,2038.99,3315.22,3204.76,3472.09,349.70,355.16,1.52,0000 0000 0000 0000 000000
2015-01-07 01:27:41,0.24,0.44,0.00,20.33,25.16,28.07,4.92,26.47,1029.80,2038.99,3312.07,3202.45,3469.59,350.39,355.84,1.55,0000 0000 0000 0000 000000
2015-01-07 01:32:42,0.26,0.45,0.00,20.32,25.15,28.04,4.94,26.38,1029.80,2039.00,3308.93,3200.18,3467.09,350.49,355.90,1.58,0000 0000 0000 0000 000000
2015-01-07 01:37:44,0.24,0.45,0.00,20.32,25.15,28.09,4.93,26.52,1029.80,2039.00,3305.66,3198.01,3464.57,350.10,355.56,1.61,0000 0000 0000 0000 000000
2015-01-07 01:42:45,0.26,0.46,0.00,20.38,25.15,28.08,4.90,26.43,1029.80,2039.00,3302.40,3195.64,3462.04,350.15,355.30,1.64,0000 0000 0000 0000 000000
2015-01-07 01:47:46,0.23,0.47,0.00,20.36,25.15,28.07,4.88,26.27,1029.80,2039.00,3299.31,3193.45,3459.66,350.07,355.30,1.67,0000 0000 0000 0000 000000
2015-01-07 01:52:47,0.26,0.48,0.00,20.30,25.15,28.11,4.92,26.52,1029.80,2039.00,3296.11,3191.16,3457.24,349.63,355.05,1.70,0000 0000 0000 0000 000000
2015-01-07 01:57:49,0.24,0.48,0.00,20.30,25.13,28.08,4.89,26.45,1029.80,2039.00,3292.94,3188.91,3454.81,350.18,355.64,1.72,0000 0000 0000 0000 000000
2015-01-07 02:02:50,0.24,0.49,0.00,20.27,25.12,28.07,4.94,26.47,1029.80,2039.00,3289.80,3186.65,3452.41,349.69,355.13,1.75,0000 0000 0000 0000 000000
2015-01-07 02:07:51,0.25,0.50,0.00,20.31,25.12,28.09,4.91,26.60,1029.78,2039.00,3286.68,3184.40,3449.96,349.71,355.09,1.78,0000 0000 0000 0000 000000
2015-01-07 02:12:52,0.24,0.50,0.00,20.26,25.12,28.07,4.86,26.43,1029.79,2039.00,3283.60,3182.27,3447.62,350.28,355.76,1.81,0000 0000 0000 0000 000000
2015-01-07 02:17:53,0.25,0.51,0.00,20.24,25.11,28.01,4.89,26.52,1029.76,2039.00,3280.43,3180.04,3445.22,349.74,355.41,1.84,0000 0000 0000 0000 000000
2015-01-07 02:22:55,0.24,0.52,0.00,20.24,25.10,28.08,4.93,26.47,1029.75,2039.00,3277.24,3177.78,3442.87,350.12,355.75,1.87,0000 0000 0000 0000 000000
2015-01-07 02:27:56,0.24,0.53,0.00,20.28,25.10,28.10,4.92,26.50,1029.70,2039.01,3274.15,3175.52,3440.43,349.99,355.43,1.90,0000 0000 0000 0000 000000
2015-01-07 02:32:58,0.24,0.53,0.00,20.25,25.10,28.07,4.93,26.51,1029.67,2039.01,3271.04,3173.36,3438.14,349.94,355.23,1.93,0000 0000 0000 0000 000000
2015-01-07 02:37:59,0.25,0.54,0.00,20.23,25.09,28.03,4.92,26.52,1029.66,2039.04,3268.05,3171.19,3435.72,350.46,355.94,1.96,0000 0000 0000 0000 000000
2015-01-07 02:43:00,0.25,0.55,0.00,20.24,25.07,28.01,4.91,26.51,1029.46,2039.02,3264.92,3168.93,3433.17,350.45,355.74,1.99,0000 0000 0000 0000 000000
2015-01-07 02:48:01,0.23,0.56,0.00,20.22,25.07,28.09,4.93,26.56,1029.50,2039.01,3261.99,3166.77,3430.93,349.72,355.14,2.02,0000 0000 0000 0000 000000
2015-01-07 02:53:02,0.24,0.56,0.00,20.29,25.07,28.10,4.91,26.44,1029.35,2039.03,3258.96,3164.54,3428.59,349.78,355.07,2.05,0000 0000 0000 0000 000000
2015-01-07 02:58:04,0.24,0.57,0.00,20.23,25.07,28.02,4.83,26.52,1029.34,2039.04,3255.86,3162.40,3426.29,349.96,355.42,2.08,0000 0000 0000 0000 000000
2015-01-07 03:03:05,0.25,0.58,0.00,20.18,25.06,28.02,4.92,26.36,1029.32,2039.06,3252.81,3160.20,3423.99,350.19,355.59,2.11,0000 0000 0000 0000 000000
2015-01-07 03:08:06,0.25,0.58,0.00,20.18,25.05,28.04,4.90,26.51,1029.32,2039.08,3249.70,3157.98,3421.59,350.25,355.56,2.13,0000 0000 0000 0000 000000
2015-01-07 03:13:08,0.25,0.59,0.00,20.21,25.05,28.03,4.86,26.57,1029.32,2039.14,3246.62,3155.78,3419.25,349.49,354.90,2.16,0000 0000 0000 0000 000000
2015-01-07 03:18:09,0.24,0.60,0.00,20.20,25.05,28.07,4.92,26.47,1029.33,2039.15,3243.55,3153.59,3416.85,349.98,355.35,2.19,0000 0000 0000 0000 000000
2015-01-07 03:23:10,0.25,0.61,0.00,20.17,25.05,28.00,4.81,26.48,1029.31,2039.13,3240.46,3151.39,3414.49,349.78,355.23,2.22,0000 0000 0000 0000 000000
2015-01-07 03:28:12,0.26,0.62,0.00,20.17,25.04,28.02,4.84,26.48,1029.31,2039.28,3237.55,3149.31,3412.25,349.27,354.70,2.25,0000 0000 0000 0000 000000
2015-01-07 03:33:13,0.24,0.62,0.00,20.19,25.02,27.97,4.91,26.45,1029.33,2039.33,3234.65,3147.18,3409.88,350.47,355.82,2.28,0000 0000 0000 0000 000000
2015-01-07 03:38:14,0.25,0.63,0.00,20.21,25.02,27.94,4.92,26.51,1029.34,2039.38,3231.82,3145.06,3407.47,350.28,355.64,2.31,0000 0000 0000 0000 000000
2015-01-07 03:43:15,0.21,0.64,0.00,20.16,25.02,27.97,4.89,26.49,1029.35,2039.22,3228.82,3142.94,3405.16,350.12,355.52,2.34,0000 0000 0000 0000 000000
2015-01-07 03:48:16,0.24,0.64,0.00,20.13,25.02,27.93,4.89,26.36,1029.33,2039.28,3225.88,3140.88,3403.01,350.02,355.44,2.37,0000 0000 0000 0000 000000
2015-01-07 03:53:17,0.25,0.65,0.00,20.14,25.01,27.97,4.90,26.49,1029.33,2039.39,3222.97,3138.79,3400.78,349.88,355.35,2.40,0000 0000 0000 0000 000000
2015-01-07 03:58:18,0.22,0.66,0.00,20.17,25.00,27.92,4.82,26.51,1029.31,2039.34,3220.19,3136.72,3398.51,350.16,355.47,2.43,0000 0000 0000 0000 000000
2015-01-07 04:03:19,0.23,0.66,0.00,20.17,25.00,27.93,4.95,26.58,1029.32,2039.35,3217.33,3134.81,3396.30,350.22,355.59,2.46,0000 0000 0000 0000 000000
2015-01-07 04:08:21,0.26,0.67,0.00,20.16,25.00,28.00,4.88,26.52,1029.32,2039.53,3214.51,3132.95,3394.21,349.88,355.22,2.49,0000 0000 0000 0000 000000
2015-01-07 04:13:22,0.24,0.68,0.00,20.13,24.99,27.99,4.90,26.52,1029.32,2039.66,3211.62,3130.93,3392.11,350.42,355.90,2.52,0000 0000 0000 0000 000000
2015-01-07 04:18:24,0.21,0.69,0.00,20.16,24.98,27.95,4.86,26.46,1029.33,2039.67,3208.84,3128.88,3390.04,349.86,355.04,2.54,0000 0000 0000 0000 000000
2015-01-07 04:23:25,0.19,0.69,0.00,20.15,24.97,27.90,4.89,26.51,1029.32,2039.44,3205.96,3126.75,3387.72,349.89,355.38,2.57,0000 0000 0000 0000 000000
2015-01-07 04:28:26,0.28,0.70,0.00,20.14,24.97,27.90,4.88,26.46,1029.35,2039.58,3203.11,3124.75,3385.55,349.84,355.20,2.60,0000 0000 0000 0000 000000
2015-01-07 04:33:27,0.18,0.71,0.00,20.14,24.97,27.87,4.89,26.48,1029.34,2039.52,3200.25,3122.70,3383.38,350.27,355.56,2.63,0000 0000 0000 0000 000000
2015-01-07 04:38:29,0.24,0.71,0.00,20.15,24.97,27.84,4.90,26.73,1029.36,2039.52,3197.64,3120.70,3381.11,349.83,355.27,2.66,0000 0000 0000 0000 000000
2015-01-07 04:43:30,0.23,0.72,0.00,20.19,24.97,27.82,4.88,26.49,1029.34,2039.48,3194.79,3118.64,3378.84,349.51,354.78,2.69,0000 0000 0000 0000 000000
2015-01-07 04:48:32,0.23,0.73,0.00,20.16,24.96,27.82,4.84,26.50,1029.35,2039.60,3192.00,3116.64,3376.76,349.69,355.08,2.72,0000 0000 0000 0000 000000
2015-01-07 04:53:33,0.28,0.73,0.00,20.17,24.95,27.80,4.87,26.49,1029.36,2039.73,3189.11,3114.67,3374.70,349.91,355.30,2.75,0000 0000 0000 0000 000000
2015-01-07 04:58:34,0.24,0.74,0.00,20.15,24.95,27.78,4.89,26.51,1029.34,2039.92,3186.28,3112.68,3372.68,349.69,355.38,2.78,0000 0000 0000 0000 000000
2015-01-07 05:03:36,0.23,0.75,0.00,20.18,24.95,27.77,4.94,26.57,1029.32,2039.93,3183.48,3110.61,3370.40,349.83,355.11,2.81,0000 0000 0000 0000 000000
2015-01-07 05:08:37,0.24,0.76,0.00,20.15,24.95,27.79,4.91,26.55,1029.32,2039.98,3180.70,3108.60,3368.21,350.10,355.55,2.84,0000 0000 0000 0000 000000
2015-01-07 05:13:39,0.23,0.76,0.00,20.11,24.95,27.80,4.89,26.61,1029.31,2039.98,3177.96,3106.64,3366.05,349.47,354.97,2.87,0000 0000 0000 0000 000000
2015-01-07 05:18:40,0.23,0.77,0.00,20.12,24.95,27.80,4.88,26.58,1029.32,2039.97,3175.16,3104.63,3363.87,349.96,355.41,2.90,0000 0000 0000 0000 000000
2015-01-07 05:23:41,0.23,0.78,0.00,20.11,24.94,27.88,4.87,26.57,1029.31,2039.97,3172.26,3102.53,3361.61,349.66,355.39,2.93,0000 0000 0000 0000 000000
2015-01-07 05:28:42,0.22,0.78,0.00,20.17,24.93,27.83,4.80,26.49,1029.31,2039.97,3169.61,3100.58,3359.39,349.61,355.04,2.95,0000 0000 0000 0000 000000
2015-01-07 05:33:43,0.22,0.79,0.00,20.12,24.92,27.82,4.87,26.47,1029.31,2039.97,3167.01,3098.65,3357.26,349.96,355.42,2.98,0000 0000 0000 0000 000000
2015-01-07 05:38:45,0.21,0.80,0.00,20.12,24.92,27.82,4.89,26.66,1029.32,2039.95,3164.46,3096.76,3355.25,349.33,354.81,3.01,0000 0000 0000 0000 000000
2015-01-07 05:43:46,0.20,0.80,0.00,20.12,24.92,27.77,4.92,26.58,1029.32,2039.97,3161.96,3095.01,3353.32,350.07,355.53,3.04,0000 0000 0000 0000 000000
2015-01-07 05:48:47,0.19,0.81,0.00,20.13,24.92,27.80,4.95,26.52,1029.34,2039.97,3159.55,3093.30,3351.36,350.58,356.17,3.07,0000 0000 0000 0000 000000
2015-01-07 05:53:48,0.21,0.81,0.00,20.16,24.92,27.80,4.86,26.42,1029.33,2039.96,3156.98,3091.49,3349.52,349.69,354.99,3.10,0000 0000 0000 0000 000000
2015-01-07 05:58:50,0.21,0.82,0.00,20.13,24.92,27.80,4.88,26.48,1029.33,2039.96,3154.46,3089.66,3347.48,350.01,355.41,3.13,0000 0000 0000 0000 000000
2015-01-07 06:03:51,0.20,0.83,0.00,20.13,24.92,27.80,4.90,26.43,1029.32,2039.99,3152.07,3087.89,3345.56,349.97,355.38,3.16,0000 0000 0000 0000 000000
2015-01-07 06:08:52,0.21,0.83,0.00,20.13,24.90,27.80,4.88,26.45,1029.32,2039.99,3149.46,3086.04,3343.59,349.71,355.24,3.19,0000 0000 0000 0000 000000
2015-01-07 06:13:53,0.22,0.84,0.00,20.14,24.90,27.71,4.84,26.52,1029.32,2039.98,3146.84,3084.18,3341.57,349.70,355.19,3.22,0000 0000 0000 0000 000000
2015-01-07 06:18:55,0.21,0.84,0.00,20.14,24.90,27.75,4.94,26.60,1029.33,2039.96,3144.25,3082.29,3339.53,349.68,355.21,3.25,0000 0000 0000 0000 000000
2015-01-07 06:23:56,0.20,0.85,0.00,20.11,24.90,27.81,4.90,26.57,1029.33,2039.98,3141.68,3080.52,3337.66,349.88,355.39,3.28,0000 0000 0000 0000 000000
2015-01-07 06:28:57,0.20,0.86,0.00,20.08,24.90,27.79,4.85,26.49,1029.36,2039.99,3139.26,3078.80,3335.80,349.70,355.42,3.31,0000 0000 0000 0000 000000
2015-01-07 06:33:58,0.21,0.86,0.00,20.12,24.90,27.75,4.92,26.52,1029.42,2039.98,3136.74,3076.98,3333.84,350.41,355.88,3.34,0000 0000 0000 0000 000000
2015-01-07 06:38:59,0.21,0.87,0.00,20.11,24.90,27.77,4.88,26.75,1029.51,2039.99,3134.27,3075.12,3331.84,350.04,355.65,3.36,0000 0000 0000 0000 000000
2015-01-07 06:44:01,0.19,0.88,0.00,20.11,24.90,27.69,4.87,26.58,1029.67,2039.99,3131.90,3073.36,3329.97,349.69,355.31,3.39,0000 0000 0000 0000 000000
2015-01-07 06:49:02,0.20,0.88,0.00,20.09,24.89,27.73,4.90,26.53,1029.66,2039.99,3129.56,3071.69,3328.09,349.97,355.63,3.42,0000 0000 0000 0000 000000
2015-01-07 06:54:03,0.17,0.89,0.00,20.07,24.89,27.75,4.88,26.61,1029.74,2039.99,3127.30,3070.16,3326.42,349.75,355.43,3.45,0000 0000 0000 0000 000000
2015-01-07 06:59:05,0.19,0.89,0.00,20.15,24.88,27.69,4.97,26.56,1029.74,2039.99,3125.08,3068.57,3324.63,350.70,356.41,3.48,0000 0000 0000 0000 000000
2015-01-07 07:04:06,0.18,0.90,0.00,20.14,24.88,27.69,4.88,26.56,1029.78,2039.99,3122.72,3066.93,3323.00,350.25,356.01,3.51,0000 0000 0000 0000 000000
2015-01-07 07:09:07,0.19,0.91,0.00,20.12,24.88,27.71,4.94,26.52,1029.80,2039.99,3120.43,3065.26,3321.17,350.03,355.60,3.54,0000 0000 0000 0000 000000
2015-01-07 07:14:08,0.19,0.91,0.00,20.10,24.87,27.72,4.89,26.60,1029.80,2039.99,3118.13,3063.73,3319.59,349.94,355.64,3.57,0000 0000 0000 0000 000000
2015-01-07 07:19:09,0.16,0.92,0.00,20.16,24.87,27.78,4.90,26.58,1029.80,2039.99,3116.06,3062.26,3317.96,349.64,355.03,3.60,0000 0000 0000 0000 000000
2015-01-07 07:24:10,0.19,0.92,0.00,20.14,24.87,27.70,4.88,26.54,1029.80,2039.99,3113.99,3060.67,3316.24,349.59,355.14,3.63,0000 0000 0000 0000 000000
2015-01-07 07:29:12,0.18,0.93,0.00,20.11,24.87,27.74,4.85,26.62,1029.80,2039.99,3111.78,3059.14,3314.57,349.70,355.26,3.66,0000 0000 0000 0000 000000
2015-01-07 07:34:13,0.18,0.93,0.00,20.11,24.87,27.73,4.92,26.60,1029.80,2039.99,3109.68,3057.54,3312.80,349.94,355.40,3.69,0000 0000 0000 0000 000000
2015-01-07 07:39:15,0.20,0.94,0.00,20.13,24.87,27.69,4.94,26.76,1029.81,2039.99,3107.28,3055.93,3311.05,349.89,355.41,3.72,0000 0000 0000 0000 000000
2015-01-07 07:44:16,0.18,0.94,0.00,20.14,24.87,27.73,4.91,26.68,1029.82,2039.99,3104.88,3054.19,3309.32,349.90,355.37,3.75,0000 0000 0000 0000 000000
2015-01-07 07:49:17,0.18,0.95,0.00,20.11,24.87,27.74,4.88,26.57,1029.81,2039.99,3102.88,3052.74,3307.69,349.63,355.37,3.77,0000 0000 0000 0000 000000
2015-01-07 07:54:18,0.15,0.95,0.00,20.12,24.87,27.70,4.97,26.56,1029.82,2039.99,3101.06,3051.48,3306.13,350.91,356.65,3.80,0000 0000 0000 0000 000000
2015-01-07 07:59:20,0.16,0.96,0.00,20.09,24.87,27.76,4.88,26.52,1029.83,2039.99,3099.28,3050.03,3304.51,349.57,355.24,3.83,0000 0000 0000 0000 000000
2015-01-07 08:04:21,0.17,0.96,0.00,20.14,24.87,27.67,4.99,26.62,1029.82,2039.99,3097.35,3048.68,3303.03,350.29,355.78,3.86,0000 0000 0000 0000 000000
2015-01-07 08:09:22,0.14,0.97,0.00,20.14,24.87,27.66,4.90,26.59,1029.83,2039.99,3095.41,3047.33,3301.49,350.09,355.88,3.89,0000 0000 0000 0000 000000
2015-01-07 08:14:23,0.17,0.97,0.00,20.14,24.87,27.73,4.95,26.51,1029.84,2039.99,3093.45,3045.90,3300.01,350.22,355.77,3.92,0000 0000 0000 0000 000000
2015-01-07 08:19:24,0.17,0.98,0.00,20.14,24.88,27.68,4.84,26.50,1029.85,2039.99,3091.40,3044.50,3298.57,349.83,355.57,3.95,0000 0000 0000 0000 000000
2015-01-07 08:24:26,0.14,0.98,0.00,20.18,24.88,27.67,4.94,26.46,1029.82,2039.99,3089.48,3043.23,3297.17,350.47,356.08,3.98,0000 0000 0000 0000 000000
2015-01-07 08:29:27,0.18,0.99,0.00,20.17,24.88,27.68,4.89,26.64,1029.83,2039.99,3087.65,3041.78,3295.69,350.41,356.02,4.01,0000 0000 0000 0000 000000
2015-01-07 08:34:28,0.16,0.99,0.00,20.15,24.89,27.65,4.89,26.54,1029.90,2039.99,3085.78,3040.45,3294.19,349.71,355.49,4.04,0000 0000 0000 0000 000000
2015-01-07 08:39:30,0.16,1.00,0.00,20.16,24.89,27.68,4.91,26.76,1030.23,2039.99,3083.90,3039.16,3292.59,349.82,355.50,4.07,0000 0000 0000 0000 000000
2015-01-07 08:44:31,0.16,1.00,0.00,20.14,24.89,27.69,4.89,26.58,1030.28,2039.99,3082.02,3037.71,3291.12,349.95,355.98,4.10,0000 0000 0000 0000 000000
2015-01-07 08:49:33,0.16,1.01,0.00,20.18,24.89,27.64,4.85,26.57,1030.29,2039.99,3080.19,3036.45,3289.66,350.16,355.96,4.13,0000 0000 0000 0000 000000
2015-01-07 08:54:34,0.16,1.01,0.00,20.18,24.89,27.64,4.95,26.61,1030.29,2039.99,3078.15,3034.98,3288.14,350.22,355.96,4.16,0000 0000 0000 0000 000000
2015-01-07 08:59:35,0.18,1.02,0.00,20.15,24.90,27.70,4.88,26.62,1030.29,2039.99,3076.14,3033.56,3286.65,349.56,355.26,4.19,0000 0000 0000 0000 000000
2015-01-07 09:04:36,0.14,1.02,0.00,20.14,24.90,27.68,4.86,26.71,1030.29,2039.99,3074.26,3032.30,3285.24,350.00,355.81,4.21,0000 0000 0000 0000 000000
2015-01-07 09:09:37,0.17,1.03,0.00,20.20,24.90,27.71,4.90,26.54,1030.29,2039.99,3072.37,3030.85,3283.74,350.35,356.06,4.24,0000 0000 0000 0000 000000
2015-01-07 09:14:39,0.16,1.03,0.00,20.27,24.90,27.68,4.88,26.63,1030.29,2039.98,3070.67,3029.49,3282.21,349.80,355.59,4.27,0000 0000 0000 0000 000000
2015-01-07 09:19:40,0.16,1.04,0.00,20.20,24.90,27.66,4.91,26.70,1030.29,2039.98,3068.81,3028.08,3280.62,350.13,356.00,4.30,0000 0000 0000 0000 000000
2015-01-07 09:24:41,0.19,1.04,0.00,20.19,24.90,27.68,4.85,26.59,1030.29,2039.99,3066.68,3026.64,3278.95,350.04,355.87,4.33,0000 0000 0000 0000 000000
2015-01-07 09:29:42,0.19,1.05,0.00,20.19,24.90,27.70,4.88,26.56,1030.29,2039.99,3064.39,3024.98,3277.25,349.85,355.47,4.36,0000 0000 0000 0000 000000
2015-01-07 09:34:43,0.19,1.05,0.00,20.20,24.91,27.70,4.95,26.67,1030.29,2039.99,3062.21,3023.28,3275.29,350.03,355.78,4.39,0000 0000 0000 0000 000000
2015-01-07 09:39:45,0.22,1.06,0.00,20.24,24.92,27.72,4.89,26.69,1030.30,2039.98,3059.83,3021.49,3273.28,349.95,355.74,4.42,0000 0000 0000 0000 000000
2015-01-07 09:44:46,0.20,1.06,0.00,20.26,24.92,27.68,4.94,26.64,1030.29,2039.98,3057.42,3019.82,3271.52,349.34,355.33,4.45,0000 0000 0000 0000 000000
2015-01-07 09:49:47,0.20,1.07,0.00,20.22,24.92,27.67,4.90,26.70,1030.29,2039.98,3055.13,3018.08,3269.66,349.75,355.45,4.48,0000 0000 0000 0000 000000
2015-01-07 09:54:49,0.19,1.08,0.00,20.22,24.92,27.68,4.96,26.58,1030.29,2039.98,3052.88,3016.51,3267.87,349.86,355.47,4.51,0000 0000 0000 0000 000000
2015-01-07 09:59:50,0.18,1.08,0.00,20.24,24.92,27.69,4.88,26.68,1030.29,2039.98,3050.82,3014.92,3266.26,349.97,355.70,4.54,0000 0000 0000 0000 000000
2015-01-07 10:04:51,0.17,1.09,0.00,20.28,24.94,27.71,4.97,26.63,1030.29,2039.96,3048.70,3013.51,3264.71,350.69,356.24,4.57,0000 0000 0000 0000 000000
2015-01-07 10:09:52,0.15,1.09,0.00,20.24,24.95,27.70,4.90,26.66,1030.29,2039.98,3046.79,3012.14,3263.31,350.28,355.79,4.59,0000 0000 0000 0000 000000
2015-01-07 10:14:54,0.19,1.10,0.00,20.25,24.95,27.72,4.95,26.62,1030.29,2039.97,3044.77,3010.62,3261.75,350.45,356.12,4.62,0000 0000 0000 0000 000000
2015-01-07 10:19:55,0.15,1.10,0.00,20.24,24.95,27.72,4.90,26.68,1030.30,2039.97,3042.80,3009.18,3260.16,349.51,355.40,4.65,0000 0000 0000 0000 000000
2015-01-07 10:24:56,0.19,1.11,0.00,20.25,24.95,27.69,4.89,26.61,1030.30,2039.95,3040.70,3007.70,3258.55,349.88,355.74,4.68,0000 0000 0000 0000 000000
2015-01-07 10:29:57,0.17,1.11,0.00,20.27,24.97,27.70,4.94,26.57,1030.31,2039.95,3038.60,3006.33,3256.85,350.11,355.65,4.71,0000 0000 0000 0000 000000
2015-01-07 10:34:59,0.17,1.12,0.00,20.28,24.97,27.71,4.91,26.58,1030.31,2039.85,3036.40,3004.71,3255.11,350.34,355.99,4.74,0000 0000 0000 0000 000000
2015-01-07 10:40:00,0.15,1.12,0.00,20.30,24.97,27.69,4.93,26.77,1030.31,2039.71,3034.20,3003.18,3253.45,350.09,355.62,4.77,0000 0000 0000 0000 000000
2015-01-07 10:45:02,0.20,1.13,0.00,20.31,24.97,27.73,4.89,26.54,1030.32,2039.76,3032.19,3001.66,3251.76,349.97,355.43,4.80,0000 0000 0000 0000 000000
2015-01-07 10:50:03,0.14,1.13,0.00,20.32,24.97,27.74,4.91,26.75,1030.32,2039.63,3030.22,3000.21,3250.17,349.78,355.43,4.83,0000 0000 0000 0000 000000
2015-01-07 10:55:04,0.15,1.14,0.00,20.36,24.99,27.75,4.92,26.68,1030.32,2039.49,3028.36,2998.76,3248.58,349.75,355.38,4.86,0000 0000 0000 0000 000000
2015-01-07 11:00:05,0.17,1.14,0.00,20.37,25.00,27.73,4.85,26.73,1030.30,2039.50,3026.35,2997.28,3246.87,349.75,355.09,4.89,0000 0000 0000 0000 000000
2015-01-07 11:05:06,0.15,1.15,0.00,20.35,25.00,27.74,4.90,26.57,1030.32,2039.41,3024.32,2995.74,3245.34,349.84,355.17,4.92,0000 0000 0000 0000 000000
2015-01-07 11:10:07,0.17,1.15,0.00,20.35,25.00,27.75,4.93,26.58,1030.31,2039.26,3022.34,2994.38,3243.68,350.07,355.63,4.95,0000 0000 0000 0000 000000
2015-01-07 11:15:09,0.19,1.16,0.00,20.33,25.02,27.77,4.87,26.64,1030.32,2039.38,3020.32,2992.87,3242.13,349.90,355.51,4.98,0000 0000 0000 0000 000000
2015-01-07 11:20:10,0.14,1.16,0.00,20.35,25.02,27.79,4.88,26.57,1030.30,2039.16,3018.34,2991.42,3240.38,350.42,355.94,5.01,0000 0000 0000 0000 000000
2015-01-07 11:25:12,0.19,1.17,0.00,20.38,25.02,27.80,4.92,26.71,1030.31,2039.06,3016.12,2989.77,3238.70,350.02,355.71,5.03,0000 0000 0000 0000 000000
2015-01-07 11:30:13,0.16,1.17,0.00,20.38,25.02,27.78,4.91,26.65,1030.31,2039.05,3014.14,2988.35,3237.04,350.10,355.74,5.06,0000 0000 0000 0000 000000
2015-01-07 11:35:14,0.18,1.18,0.00,20.36,25.03,27.79,4.93,26.66,1030.30,2039.03,3012.07,2986.83,3235.42,350.28,355.71,5.09,0000 0000 0000 0000 000000
2015-01-07 11:40:15,0.18,1.18,0.00,20.34,25.04,27.79,4.88,26.69,1030.31,2039.01,3009.99,2985.40,3233.78,350.27,355.75,5.12,0000 0000 0000 0000 000000
2015-01-07 11:45:17,0.16,1.19,0.00,20.36,25.05,27.80,4.88,26.68,1030.31,2039.02,3008.13,2983.91,3232.32,349.32,354.85,5.15,0000 0000 0000 0000 000000
2015-01-07 11:50:18,0.17,1.19,0.00,20.39,25.05,27.79,4.89,26.68,1030.31,2039.01,3006.23,2982.53,3230.78,349.73,355.37,5.18,0000 0000 0000 0000 000000
2015-01-07 11:55:20,0.17,1.20,0.00,20.39,25.05,27.81,4.90,26.53,1030.30,2039.02,3004.21,2981.02,3229.27,350.16,355.63,5.21,0000 0000 0000 0000 000000
2015-01-07 12:00:21,0.18,1.21,0.00,20.41,25.06,27.81,4.92,26.64,1030.29,2039.02,3002.20,2979.57,3227.67,350.40,355.70,5.24,0000 0000 0000 0000 000000
2015-01-07 12:05:22,0.16,1.21,0.00,20.42,25.07,27.81,4.90,26.48,1030.29,2039.01,3000.33,2978.15,3226.04,350.25,355.72,5.27,0000 0000 0000 0000 000000
2015-01-07 12:10:23,0.19,1.22,0.00,20.43,25.07,27.83,4.86,26.57,1030.29,2039.01,2998.32,2976.68,3224.53,349.72,355.10,5.30,0000 0000 0000 0000 000000
2015-01-07 12:15:25,0.18,1.22,0.00,20.43,25.07,27.83,4.90,26.63,1030.29,2039.00,2996.26,2975.21,3222.77,350.11,355.68,5.33,0000 0000 0000 0000 000000
2015-01-07 12:20:26,0.19,1.23,0.00,20.43,25.09,27.81,4.89,26.63,1030.29,2039.00,2994.19,2973.67,3221.16,349.97,355.78,5.36,0000 0000 0000 0000 000000
2015-01-07 12:25:27,0.16,1.23,0.00,20.47,25.10,27.85,4.88,26.69,1030.29,2039.00,2992.30,2972.24,3219.58,349.86,355.41,5.39,0000 0000 0000 0000 000000
2015-01-07 12:30:29,0.16,1.24,0.00,20.50,25.10,27.84,4.91,26.58,1030.29,2039.00,2990.47,2970.86,3218.09,349.86,355.04,5.42,0000 0000 0000 0000 000000
2015-01-07 12:35:30,0.17,1.24,0.00,20.48,25.10,27.84,4.82,26.48,1030.29,2039.00,2988.68,2969.57,3216.62,349.78,355.37,5.44,0000 0000 0000 0000 000000
2015-01-07 12:40:31,0.17,1.25,0.00,20.49,25.12,27.86,4.89,26.73,1030.29,2038.99,2986.70,2968.14,3214.96,350.01,355.41,5.47,0000 0000 0000 0000 000000
2015-01-07 12:45:33,0.18,1.25,0.00,20.48,25.12,27.86,4.90,26.78,1030.26,2038.99,2984.90,2966.67,3213.41,349.61,354.95,5.50,0000 0000 0000 0000 000000
2015-01-07 12:50:34,0.17,1.26,0.00,20.49,25.12,27.86,4.89,26.61,1030.24,2038.99,2982.97,2965.32,3211.82,349.73,355.19,5.53,0000 0000 0000 0000 000000
2015-01-07 12:55:35,0.16,1.26,0.00,20.48,25.13,27.87,4.87,26.51,1030.26,2038.98,2980.96,2963.96,3210.46,349.96,355.33,5.56,0000 0000 0000 0000 000000
2015-01-07 13:00:36,0.16,1.27,0.00,20.53,25.15,27.88,4.88,26.55,1030.22,2038.97,2979.13,2962.63,3208.98,349.66,354.95,5.59,0000 0000 0000 0000 000000
2015-01-07 13:05:38,0.15,1.27,0.00,20.54,25.15,27.89,4.90,26.58,1030.05,2038.98,2977.40,2961.25,3207.52,349.84,355.28,5.62,0000 0000 0000 0000 000000